Dewpoint
14 12 6 6 6 5 12 13 14 12 14 13 15 15 14 14 11 11 12 13 15 15 14 12 12 12 10 14 14 14 13 13 13 9 10 10 11 11 11 11 13 14 14
13 14 13 5 3 3 2 12 12 13 12 13 14 15 15 15 14 11 13 13 17 17 16 15 16 16 16 13 15 16 15 14 14 14 13 13 15 13 13 14 14 15 15
14 14 14 14 8 3 1 1 10 9 11 14 17 15 15 15 13 10 10 10 13 16 16 17 14 16 16 14 12 14 15 15 15 14 14 14 12 12 16 16 16 14 13
15 15 15 15 14 11 4 2 2 2 7 11 15 14 14 14 13 10 11 9 9 13 13 14 14 14 14 15 14 14 13 13 13 14 14 12 13 15 17 15 11 5 7
16 16 16 15 15 15 13 8 5 3 3 4 8 14 12 12 11 11 12 11 8 8 10 12 12 14 14 14 15 15 16 15 15 15 16 17 16 18 15 9 9 9 8
16 16 17 17 16 16 16 14 11 9 5 4 6 6 11 11 10 10 11 12 12 10 7 8 9 10 11 13 15 15 15 16 16 15 15 15 11 9 9 11 10 12 14
15 16 16 16 17 17 17 17 15 13 11 9 8 8 6 9 9 8 9 11 12 12 11 9 9 10 10 10 12 13 14 15 15 15 15 13 12 11 14 10 12 14 14
16 15 15 16 16 16 17 17 17 16 15 12 12 11 7 6 8 8 8 10 12 13 13 12 11 9 8 9 9 14 16 16 15 15 16 15 16 13 13 13 14 13 15
16 15 15 15 15 16 16 16 17 17 16 15 14 13 11 10 9 10 10 11 13 13 13 14 13 12 9 10 11 11 12 12 11 12 14 16 15 11 10 14 12 16 18
16 17 15 15 15 15 15 16 16 16 16 16 16 16 15 14 13 12 11 11 12 13 13 13 14 14 13 12 12 12 11 6 6 8 9 10 12 12 13 15 17 18 19
17 17 16 15 15 15 15 15 16 16 16 17 16 16 16 15 13 11 10 11 11 11 12 13 12 12 12 12 12 12 11 8 11 13 13 14 13 15 16 17 18 19 19
13 17 17 16 16 16 16 16 16 16 16 17 17 17 17 15 13 10 10 12 11 12 13 12 12 10 10 11 10 11 12 13 13 14 14 14 15 17 17 18 19 19 19
17 14 17 17 16 17 17 17 16 17 17 17 17 17 17 15 15 13 10 11 12 14 14 13 12 12 13 14 15 14 14 14 14 14 14 15 16 18 18 18 19 19 18
17 17 14 18 17 17 17 17 17 17 17 18 18 18 18 18 17 16 14 14 14 15 15 15 15 16 16 15 16 15 14 13 13 14 15 16 17 18 18 19 19 17 17
17 17 18 15 18 17 17 18 18 18 17 18 18 18 19 19 16 15 14 14 13 13 15 16 17 17 16 15 14 14 13 12 11 12 15 17 18 18 18 18 18 17 17
18 17 17 17 17 18 18 18 19 19 19 18 18 18 18 18 18 17 17 16 16 16 16 16 17 16 14 11 10 11 11 11 11 14 18 18 18 18 19 19 18 16 16
18 19 19 20 19 19 19 19 19 20 19 19 20 19 19 19 18 19 18 16 15 17 17 16 17 18 18 17 16 15 14 15 17 19 19 17 17 18 18 18 17 16 16
17 17 18 20 20 19 18 19 19 18 18 20 19 19 19 19 19 18 18 17 17 17 16 16 17 18 18 18 17 18 19 19 19 19 18 17 17 17 18 17 16 16 15
15 17 17 18 19 19 19 18 18 18 18 18 19 19 20 19 18 18 18 18 17 17 16 17 17 17 18 19 18 19 19 19 19 18 17 18 18 17 16 16 16 15 14
14 15 16 17 18 18 18 18 18 19 19 18 19 18 18 18 18 17 17 16 16 17 17 16 16 17 19 19 19 19 18 17 17 17 18 17 16 16 16 16 15 15 15
12 14 16 17 17 18 17 17 18 18 19 19 19 18 17 17 15 11 11 12 14 15 16 16 16 15 16 17 17 17 16 18 18 18 17 17 17 16 16 16 15 13 13
12 13 15 16 16 16 16 16 16 17 17 17 15 13 13 11 12 14 14 14 14 15 16 15 14 12 13 15 17 17 17 17 17 16 16 16 15 15 14 12 11 11 10
11 13 14 15 15 16 16 16 16 15 15 15 15 15 15 14 13 13 14 15 16 17 17 17 17 16 16 17 17 16 16 16 16 15 15 15 14 13 13 12 12 12 11
10 11 12 14 15 14 14 15 15 15 15 15 15 15 15 16 15 15 15 15 15 15 15 15 15 15 15 16 16 15 15 14 14 14 13 13 13 12 12 11 11 11 12
10 10 10 12 12 12 13 14 14 14 14 15 14 14 14 14 14 15 15 15 14 14 14 14 13 13 14 14 13 13 12 13 12 12 11 11 10 10 10 11 11 11 11
8 9 9 9 9 10 11 12 12 12 12 12 12 12 11 11 11 10 11 11 12 12 12 12 11 11 12 11 11 11 11 11 11 10 9 9 9 9 9 10 10 10 10
Wind_Speed
43 43 46 48 44 39 40 36 31 32 29 22 18 23 18 14 14 14 13 13 10 9 10 11 14 13 18 15 12 12 10 12 15 12 12 12 15 18 21 20 16 21 24
47 44 44 47 48 45 42 41 38 34 31 28 24 21 21 18 16 19 17 16 18 15 15 14 16 13 14 19 17 14 14 14 15 19 18 18 16 13 14 14 19 23 19
50 47 46 45 48 50 47 44 43 38 36 32 24 27 25 24 20 19 19 18 22 21 17 17 19 20 18 16 20 22 21 19 19 22 22 19 20 18 14 20 16 17 24
51 50 48 47 46 47 48 47 45 43 40 39 37 34 33 33 29 23 21 20 19 25 22 20 19 19 21 20 19 19 18 20 21 23 25 25 20 16 16 20 27 26 28
48 50 50 46 44 43 44 46 46 47 44 41 41 41 38 34 31 28 26 24 22 22 25 26 24 23 23 22 22 22 21 21 20 20 22 22 22 21 25 30 31 30 31
49 50 47 45 43 43 43 43 42 44 48 45 44 43 42 40 35 31 28 28 26 24 23 23 25 25 23 22 21 21 22 25 25 25 27 29 31 31 27 24 27 31 36
53 52 50 46 44 42 43 42 42 41 42 48 45 44 44 43 40 34 30 29 28 27 26 24 23 24 24 25 24 24 22 21 22 23 25 25 24 20 22 28 30 32 33
44 51 51 48 45 43 41 44 42 41 41 43 47 46 45 44 41 37 33 30 29 27 26 25 24 23 23 22 22 22 23 23 23 23 24 22 22 24 28 29 31 34 32
30 51 52 50 47 46 44 42 42 41 42 41 42 44 44 42 40 38 35 34 34 33 31 30 29 28 25 24 24 26 29 30 28 27 27 28 31 31 30 29 27 28 30
37 47 51 49 49 48 46 44 42 42 42 41 42 42 42 42 40 38 37 37 37 38 37 36 35 34 31 30 31 30 32 30 28 28 29 30 27 25 24 25 21 23 25
26 44 49 49 50 49 47 46 45 44 42 44 43 43 43 40 38 37 36 38 39 39 40 39 37 36 34 33 33 35 35 23 19 20 22 23 23 24 22 17 17 19 22
23 27 44 45 47 49 48 48 47 45 45 44 45 45 44 42 39 36 36 37 38 40 41 37 37 33 30 28 24 20 18 17 21 22 24 25 24 24 18 14 15 17 22
22 26 27 46 45 45 47 49 48 46 46 45 45 45 45 43 41 38 35 35 35 38 38 37 37 35 31 25 22 21 21 25 27 27 27 27 26 22 16 15 15 20 20
26 27 30 36 47 44 47 47 48 48 48 46 45 44 43 42 40 40 38 36 34 33 34 36 37 37 37 35 33 32 32 29 27 28 26 24 22 18 16 16 20 17 14
26 29 31 34 43 48 48 47 48 50 49 48 46 43 41 41 42 39 38 36 32 31 28 32 38 39 39 39 40 37 33 30 28 27 26 21 16 19 16 15 17 12 16
19 25 31 33 40 49 48 48 45 46 46 45 41 42 42 41 37 34 33 34 30 25 28 32 31 33 35 36 36 35 36 34 30 25 17 16 17 17 18 18 14 14 17
16 17 23 29 38 44 46 48 48 40 41 42 40 36 37 34 33 35 28 27 28 31 35 34 32 29 25 23 27 26 24 23 19 18 15 15 18 18 18 13 11 16 21
14 22 28 26 30 35 43 43 43 46 42 43 37 37 31 35 35 33 35 32 36 42 40 38 35 29 24 19 17 18 18 18 19 18 18 19 20 16 12 11 17 20 19
10 17 27 32 31 34 33 38 40 40 42 41 36 38 39 33 32 28 24 26 26 30 38 36 33 29 24 19 20 22 23 23 21 19 19 19 16 13 14 18 21 21 20
5 9 25 28 37 37 38 35 37 38 37 40 40 36 40 33 31 33 32 30 28 25 24 27 32 30 24 25 27 25 23 22 22 17 17 17 17 17 22 22 22 22 22
7 7 10 20 28 29 37 34 33 33 32 32 36 34 28 22 18 19 19 15 17 17 18 25 25 14 21 22 25 22 20 19 18 17 16 17 17 19 21 22 24 24 22
10 14 11 9 15 22 18 22 21 26 25 28 25 24 21 20 17 15 14 15 17 16 17 17 19 16 21 26 19 12 13 17 17 15 15 18 18 18 17 12 9 10 15
0 5 19 16 12 9 14 15 17 17 15 16 16 16 17 12 15 14 14 14 16 17 16 19 23 24 21 15 13 15 17 19 17 16 17 18 16 12 9 8 9 9 8
1 4 17 23 23 23 23 23 27 21 14 17 12 8 6 10 14 15 14 15 15 14 15 17 18 18 17 17 16 17 17 17 15 13 14 15 14 14 14 14 9 10 11
5 2 7 17 21 20 17 21 19 18 20 21 17 14 13 12 15 12 10 15 18 17 14 13 12 12 11 9 10 10 11 12 13 15 16 16 15 15 18 19 17 16 14
14 13 11 10 11 13 14 16 20 22 20 19 21 22 22 23 19 15 13 13 13 11 10 9 7 5 4 4 5 6 6 7 10 12 12 13 15 14 15 16 16 16 15
Wind_Direction
221 221 215 213 214 209 207 206 204 209 215 221 211 216 224 235 232 226 216 213 220 224 226 210 210 215 220 215 226 235 240 253 270 274 270 270 285 286 288 301 317 322 324
226 223 223 219 218 217 213 212 212 210 211 219 222 221 221 229 236 229 227 218 222 233 235 232 239 233 234 223 229 234 239 244 258 271 282 289 290 301 318 320 324 316 316
225 226 225 225 221 221 219 217 213 215 215 214 218 226 227 233 236 236 234 227 223 229 234 236 237 241 249 251 233 239 243 245 253 264 277 287 300 315 315 313 309 314 311
225 228 228 228 228 223 224 221 221 220 221 216 220 225 229 238 245 246 243 236 227 229 237 238 241 240 247 253 258 257 256 257 261 268 278 287 292 301 301 302 304 308 310
221 225 229 230 230 232 228 226 223 224 225 226 223 228 233 234 239 241 243 243 240 233 235 241 245 248 254 259 262 265 269 271 271 272 278 286 291 289 291 303 308 314 316
213 223 227 228 230 230 232 229 226 223 227 229 230 231 234 238 240 242 241 244 246 247 244 242 245 249 252 256 259 267 270 271 274 276 280 282 287 294 304 307 311 316 320
212 218 224 229 228 229 229 229 231 227 224 230 234 234 234 237 242 244 242 243 245 248 253 253 251 251 255 258 259 262 264 267 271 277 280 283 293 305 307 310 313 313 313
218 218 223 226 229 230 228 228 229 231 230 228 234 238 240 241 242 244 243 243 247 248 251 257 260 260 258 259 260 258 263 265 265 269 273 284 292 299 301 304 306 308 312
224 227 225 226 228 228 229 229 228 229 232 233 235 238 240 243 243 243 242 240 243 249 252 255 258 262 265 264 262 261 263 269 275 279 282 284 290 293 294 296 303 308 310
245 234 229 228 229 230 233 230 231 231 233 235 237 240 243 244 246 245 242 240 241 247 252 255 257 260 264 266 266 268 268 270 271 273 277 282 284 289 299 297 296 296 304
253 231 230 231 231 233 232 233 232 233 234 234 240 243 245 247 247 244 242 241 243 247 250 254 257 258 261 264 266 266 270 284 281 280 281 284 294 299 303 294 288 288 296
242 234 232 231 232 231 231 231 232 232 234 237 236 240 244 246 247 246 244 243 247 249 253 257 259 261 262 264 262 259 259 267 270 271 273 280 292 300 301 284 283 294 296
250 244 241 230 230 230 230 229 229 231 232 233 233 236 240 244 245 245 247 247 248 252 254 255 259 261 262 259 253 256 257 257 259 261 269 284 295 299 288 282 289 293 295
256 249 239 232 230 227 230 229 227 229 230 228 231 233 237 238 242 246 247 249 248 249 252 252 253 252 251 248 248 252 257 259 262 270 278 286 291 286 281 288 292 297 281
262 251 250 238 231 227 228 227 229 232 234 231 234 234 229 235 240 243 247 246 244 244 243 244 245 245 246 247 248 251 255 260 264 271 279 281 277 278 281 285 289 273 281
259 250 242 246 233 225 223 223 227 231 232 239 243 241 239 241 248 247 247 250 246 241 236 238 239 241 244 247 249 251 254 258 265 271 265 268 268 276 281 286 260 275 277
261 234 226 229 223 220 221 222 222 225 235 232 232 237 237 246 240 240 241 236 238 239 238 238 239 240 245 248 244 244 244 245 241 244 252 272 274 273 276 256 259 266 279
266 240 228 216 219 222 225 226 230 231 227 223 225 229 233 230 236 235 236 236 235 236 237 238 236 240 240 232 223 215 219 223 231 231 249 256 259 256 244 251 260 272 276
291 258 243 231 227 228 232 229 231 233 228 229 217 224 217 217 214 219 222 227 233 237 231 235 241 241 234 230 235 224 223 221 236 236 244 248 234 244 248 253 254 265 276
339 265 248 244 237 231 228 230 227 228 226 224 220 218 211 209 215 227 236 245 245 242 243 248 250 243 226 216 219 224 230 227 233 238 238 231 247 251 252 255 262 271 275
10 337 263 233 230 229 227 223 218 213 199 207 201 198 200 192 196 217 223 238 245 242 238 245 249 280 316 256 241 231 250 244 231 218 220 234 242 246 244 255 266 269 261
356 25 44 222 202 159 157 160 167 171 165 175 175 169 176 200 218 227 236 232 240 243 242 259 269 269 227 236 249 243 240 215 216 219 234 238 244 251 259 265 276 284 271
186 31 99 136 106 113 137 159 157 148 144 152 169 191 200 208 224 234 244 252 237 228 188 195 215 207 204 207 219 220 214 213 218 230 230 235 235 230 244 264 282 295 317
43 8 87 107 107 103 109 129 143 137 152 153 138 156 164 167 174 185 177 187 202 193 188 189 187 185 193 200 201 204 206 214 223 229 236 234 234 234 243 241 246 266 278
48 57 68 88 101 105 111 123 125 164 177 169 172 195 184 179 181 192 198 210 214 206 196 200 198 201 198 193 201 216 220 232 236 240 242 243 240 236 231 230 236 242 255
58 65 67 81 96 97 98 102 124 135 138 136 140 148 158 162 157 162 160 192 185 177 179 181 184 193 218 231 224 239 257 235 226 223 215 207 205 209 222 235 243 251 253
Height
1533 1537 1542 1546 1550 1556 1561 1565 1569 1573 1576 1579 1581 1585 1587 1589 1592 1594 1596 1599 1600 1602 1604 1605 1606 1608 1609 1610 1611 1611 1611 1612 1611 1610 1610 1610 1610 1608 1607 1606 1603 1600 1598
1526 1530 1535 1540 1544 1549 1554 1559 1564 1568 1572 1575 1578 1581 1584 1586 1589 1590 1593 1595 1597 1598 1601 1602 1603 1605 1606 1607 1608 1609 1609 1610 1609 1607 1607 1607 1606 1605 1603 1601 1599 1597 1594
1519 1524 1528 1532 1536 1540 1545 1551 1557 1562 1567 1571 1573 1575 1578 1581 1584 1587 1589 1592 1594 1595 1597 1599 1600 1602 1602 1603 1604 1605 1606 1606 1606 1604 1603 1602 1601 1601 1599 1597 1595 1593 1590
1510 1515 1520 1524 1527 1533 1538 1543 1549 1555 1560 1565 1568 1571 1574 1577 1580 1583 1585 1587 1590 1591 1593 1594 1596 1598 1599 1600 1600 1601 1602 1602 1602 1601 1599 1599 1598 1597 1594 1592 1590 1588 1585
1504 1508 1511 1518 1524 1528 1532 1535 1542 1547 1552 1557 1562 1565 1568 1572 1574 1578 1580 1582 1585 1587 1588 1589 1591 1592 1593 1594 1595 1596 1597 1598 1597 1597 1595 1594 1593 1592 1591 1588 1584 1581 1579
1498 1502 1508 1513 1517 1519 1524 1528 1533 1539 1544 1549 1553 1557 1561 1564 1568 1572 1575 1577 1579 1581 1582 1584 1585 1587 1588 1589 1590 1591 1592 1592 1592 1592 1591 1590 1588 1588 1586 1583 1579 1575 1570
1491 1495 1500 1505 1509 1512 1518 1522 1524 1530 1536 1539 1544 1549 1552 1556 1560 1565 1569 1572 1574 1575 1577 1578 1580 1581 1582 1583 1585 1586 1586 1587 1587 1587 1586 1584 1584 1583 1582 1578 1575 1571 1568
1493 1489 1492 1496 1501 1507 1511 1515 1519 1523 1528 1533 1536 1540 1545 1548 1553 1558 1562 1566 1567 1569 1571 1573 1574 1575 1577 1578 1579 1580 1580 1580 1581 1581 1580 1580 1579 1578 1576 1574 1571 1566 1562
1483 1487 1485 1489 1494 1498 1503 1507 1512 1516 1520 1523 1528 1532 1535 1539 1545 1550 1555 1558 1560 1561 1563 1566 1567 1568 1570 1572 1573 1573 1572 1572 1573 1574 1574 1574 1573 1572 1570 1568 1565 1562 1557
1474 1478 1480 1483 1487 1490 1495 1500 1505 1509 1512 1517 1521 1524 1527 1531 1536 1541 1546 1550 1552 1554 1555 1557 1559 1561 1563 1565 1566 1566 1565 1565 1567 1568 1567 1567 1566 1564 1563 1562 1560 1558 1556
1470 1472 1474 1475 1479 1483 1488 1493 1497 1502 1506 1510 1513 1517 1520 1523 1527 1532 1537 1540 1543 1545 1546 1548 1550 1553 1555 1557 1558 1558 1557 1559 1559 1560 1560 1559 1558 1558 1557 1556 1555 1554 1552
1463 1465 1467 1470 1474 1477 1480 1485 1489 1494 1498 1501 1505 1509 1511 1515 1518 1522 1526 1530 1534 1536 1537 1540 1541 1545 1547 1549 1550 1550 1552 1553 1553 1553 1552 1552 1552 1552 1551 1550 1550 1550 1549
1452 1457 1461 1465 1467 1470 1472 1476 1481 1485 1488 1492 1496 1499 1502 1505 1508 1512 1516 1520 1524 1526 1529 1530 1533 1536 1538 1539 1541 1542 1544 1545 1546 1545 1545 1546 1547 1546 1545 1545 1545 1546 1544
1444 1448 1452 1455 1459 1461 1463 1467 1470 1474 1477 1482 1486 1488 1493 1497 1500 1502 1506 1510 1514 1517 1520 1522 1524 1527 1529 1531 1531 1533 1534 1536 1537 1538 1539 1539 1540 1539 1539 1540 1540 1540 1539
1438 1441 1444 1447 1450 1453 1455 1456 1459 1462 1466 1471 1475 1480 1485 1487 1488 1493 1496 1500 1504 1506 1511 1513 1514 1515 1517 1518 1520 1522 1524 1527 1528 1530 1532 1533 1533 1534 1535 1535 1534 1534 1533
1433 1433 1436 1439 1441 1444 1448 1450 1453 1456 1460 1464 1469 1473 1476 1480 1483 1488 1490 1493 1496 1499 1500 1500 1500 1502 1503 1505 1508 1511 1515 1518 1520 1523 1525 1526 1526 1527 1529 1530 1529 1528 1529
1429 1428 1430 1433 1434 1437 1439 1443 1446 1449 1453 1458 1463 1467 1471 1475 1478 1481 1483 1486 1488 1491 1489 1490 1491 1492 1493 1494 1496 1500 1503 1506 1512 1516 1519 1521 1522 1522 1522 1523 1525 1525 1524
1425 1424 1426 1426 1428 1430 1433 1435 1439 1442 1445 1449 1456 1461 1465 1468 1471 1474 1477 1479 1479 1479 1481 1482 1484 1488 1490 1491 1490 1491 1494 1499 1503 1507 1511 1514 1517 1517 1517 1518 1519 1520 1518
1421 1420 1420 1420 1421 1425 1427 1429 1430 1434 1438 1444 1446 1453 1457 1462 1465 1468 1468 1470 1470 1471 1475 1480 1482 1481 1481 1483 1487 1490 1490 1492 1496 1500 1503 1505 1508 1511 1512 1513 1513 1514 1514
1419 1417 1414 1414 1414 1416 1418 1423 1426 1427 1431 1435 1440 1445 1451 1456 1458 1462 1462 1464 1464 1467 1472 1474 1472 1474 1475 1474 1475 1482 1487 1486 1487 1490 1497 1499 1501 1503 1506 1507 1508 1507 1506
1416 1413 1411 1409 1407 1407 1409 1414 1418 1422 1425 1428 1430 1437 1446 1450 1455 1457 1457 1460 1461 1461 1463 1462 1459 1443 1445 1473 1475 1475 1479 1483 1483 1485 1488 1493 1496 1498 1500 1501 1502 1501 1502
1414 1412 1409 1405 1406 1393 1406 1409 1413 1415 1418 1424 1429 1430 1435 1443 1448 1449 1451 1455 1457 1457 1458 1456 1451 1444 1458 1462 1470 1470 1473 1480 1481 1482 1483 1487 1490 1492 1494 1495 1495 1497 1496
1417 1415 1406 1403 1386 1379 1399 1410 1411 1414 1419 1426 1429 1436 1438 1438 1441 1443 1447 1451 1456 1457 1453 1457 1461 1465 1465 1466 1465 1473 1474 1476 1477 1476 1479 1483 1486 1487 1488 1490 1492 1493 1493
1418 1413 1403 1401 1399 1401 1405 1405 1410 1415 1421 1424 1429 1429 1427 1435 1436 1445 1441 1444 1453 1456 1452 1456 1460 1461 1462 1464 1463 1467 1466 1469 1469 1471 1477 1481 1483 1486 1485 1485 1486 1488 1489
1416 1414 1408 1405 1407 1410 1404 1408 1409 1415 1418 1419 1421 1428 1427 1434 1439 1441 1438 1444 1448 1447 1446 1451 1452 1456 1456 1457 1460 1461 1463 1464 1465 1470 1474 1476 1475 1477 1479 1479 1481 1482 1483
1418 1417 1415 1413 1412 1413 1414 1412 1413 1417 1422 1422 1423 1426 1432 1435 1435 1443 1436 1448 1446 1445 1445 1447 1452 1452 1453 1453 1454 1457 1462 1461 1464 1467 1469 1470 1469 1471 1474 1476 1477 1477 1477